Powrót do katalogu

CZ-6A DEB

AktywnyPO
NORAD 61365·DEBRIS·🇨🇳 China

Wystrzelony Aug 6, 2024 z Taiyuan Satellite Launch Center

Loading…

Następne Przeloty (najbliższe 24 godziny)

TLE

ŚwieżeSource: Space-Track

Epoka: Sep 14, 2026, 11:04 UTC

1 61365U 24140WE  26257.46167537  .00000568  00000-0  73793-4 0  9995
2 61365  89.1157 269.1135 0167583 217.6895 141.2490 14.69808640108645

Śledź CZ-6A DEB w czasie rzeczywistym z AllMySat

Download on the App Store